Lid_Strength_Index
1 0 -0 -1 -1 -1 -1 -1 -1 -1 -1 -1 -1 -1 -1 -1 -1 -1 -1 -1 -1 -1 -1 -1 -1 -1 -1 -1 -1 -1 -1 -1 -1 -1 -1 -1 -1 -1 -1 -1 -1 -1 -1
0 -0 -0 -1 -1 -1 -1 -1 -1 -1 -1 -1 -1 -1 -1 -1 -1 -1 -1 -1 -1 -1 -1 -1 -1 -1 -1 -1 -1 -1 -1 -1 -1 -1 -1 -1 -1 -1 -1 -1 -1 -1 -1
1 -0 -0 -0 -1 -1 -1 -1 -1 -1 -1 -1 -1 -1 -1 -1 -1 -1 -1 -1 -1 -1 -1 -1 -1 -1 -1 -1 -1 -1 -1 -1 -1 -1 -1 -0 -0 -1 -1 -1 -1 -1 -1
0 -0 -0 -1 -1 -1 -1 -1 -1 -1 -1 -1 -1 -1 -1 -1 -1 -1 -1 -1 -1 -1 -1 -1 -1 -1 -1 -1 -1 -1 -1 -1 -1 -1 -0 -0 -0 -1 -1 -1 -1 -1 -1
0 -0 -0 -0 -1 -1 -1 -1 -1 -1 -1 -1 -1 -1 -1 -1 -1 -1 -1 -1 -1 -1 -1 -1 -1 -1 -1 -1 -1 -1 -1 -1 -1 -1 1 0 -0 -1 -2 -2 -1 -1 -1
0 -0 -0 -0 -1 -1 -1 -1 -1 -1 -1 -1 -1 -1 -1 -1 -1 -1 -1 -1 -1 -1 -1 -1 -1 -1 -1 -1 -1 -1 -1 -1 -1 0 -0 0 0 -2 -1 -1 -1 -1 -1
1 0 -0 -0 -0 -1 -1 -1 -1 -1 -1 -1 -1 -1 -1 -1 -1 -1 -1 -1 -1 -1 -1 -1 -1 -1 -1 -1 -1 -1 -1 -1 0 1 1 0 -0 -1 -1 -2 -2 -2 -1
1 0 -0 -0 -1 -1 -1 -1 -1 -1 -1 -1 -1 -1 -1 -1 -1 -1 -1 -1 -1 -1 -1 -1 -1 -1 -1 -1 -1 -2 -2 -1 0 1 1 2 -1 -2 -1 -1 -1 -1 -1
0 0 0 -0 -0 -1 -1 -1 -1 -1 -1 -1 -1 -1 -1 -1 -1 -1 -1 -1 -1 -1 -1 -1 -1 -1 -1 -1 -2 -2 -2 -1 0 1 0 -0 -1 -1 -1 -1 -1 -1 -1
1 0 0 0 1 0 -0 -1 -1 -1 -1 -1 -1 -1 -1 -1 -1 -1 -0 -1 -1 -1 -1 -1 -1 -2 -2 -1 -2 -2 -2 -1 0 2 -0 -0 -1 -1 -1 -1 -1 -1 -1
1 1 0 0 0 1 0 -0 -1 -1 -1 -1 -1 -1 -0 -0 -0 -0 -1 -1 -1 -1 -1 -2 -2 -2 -2 -2 -2 -2 -1 0 1 1 -0 -1 -1 -1 -1 -1 -1 -1 -1
2 2 1 0 0 0 0 -0 -0 -0 -0 -0 -0 -0 -0 0 0 -0 -1 -1 -1 -1 -1 -2 -2 -2 -1 -0 0 -1 -0 -0 1 0 -0 -1 -1 -1 -1 -1 -1 -1 -1
2 2 1 1 0 0 0 0 -0 -0 -0 -0 -0 -0 0 -0 0 0 0 0 0 -1 0 -0 -0 -0 0 1 1 2 2 2 2 0 -1 -1 -1 -1 -1 -1 -1 -1 -1
2 2 2 1 1 0 0 0 0 0 0 -0 -0 0 0 0 0 0 0 0 0 0 0 0 0 0 1 1 2 2 2 1 1 1 -1 -1 -2 -2 -1 -1 -1 -1 -1
3 2 2 2 1 1 0 0 0 0 0 0 -0 -0 0 0 1 0 0 0 0 0 0 1 2 1 2 2 1 1 1 1 1 1 0 -2 -2 -2 -1 -1 -1 -1 -1
2 3 3 3 2 1 1 1 1 1 0 1 0 -0 0 0 0 0 1 1 1 0 1 1 2 2 2 1 1 0 1 0 0 1 1 0 -1 -2 -2 -1 -1 -1 -1
2 2 3 3 3 2 2 2 1 1 1 1 0 0 0 1 0 1 0 1 0 1 1 2 2 1 2 1 1 0 1 1 1 1 0 0 -0 -2 -2 -2 -2 -1 -1
2 2 2 2 2 3 3 2 2 1 1 1 0 0 0 0 0 1 1 2 1 1 1 1 1 1 2 2 2 2 2 1 2 3 1 1 0 -0 -2 -2 -2 -1 -1
2 2 2 2 3 3 4 3 3 2 2 0 0 0 0 0 -0 0 1 2 1 0 0 1 2 2 2 3 2 3 2 3 3 1 1 0 0 0 1 -0 -2 -2 -2
2 2 2 1 2 3 2 3 2 2 2 1 0 0 0 1 0 1 1 2 0 1 2 2 2 2 2 3 3 3 3 4 4 3 2 2 2 1 1 1 1 0 -2
3 2 2 2 1 2 2 2 2 2 1 1 0 1 0 0 0 2 2 0 1 2 2 2 2 3 4 3 3 5 3 3 3 2 1 2 2 1 1 1 2 1 1
5 2 2 2 2 2 1 1 1 1 1 1 1 1 1 0 1 1 0 1 2 2 2 2 2 3 4 3 5 4 6 4 4 2 3 2 3 3 2 3 3 3 3
7 3 2 2 2 1 1 2 1 1 1 2 1 2 1 0 1 0 0 2 2 2 2 3 3 3 4 3 3 4 6 7 5 4 5 5 5 5 5 5 5 4 3
8 3 2 2 2 2 1 2 2 3 3 2 2 1 1 1 0 0 1 1 2 2 3 3 3 3 3 4 3 3 3 4 6 6 5 6 6 6 6 5 6 4 4
5 6 2 2 2 2 2 2 2 2 2 2 2 2 1 1 0 0 1 2 2 3 4 4 4 3 3 4 4 4 6 6 5 7 8 8 7 7 7 6 6 6 5
5 5 2 2 2 2 2 2 2 2 2 2 2 2 2 1 1 1 2 2 3 4 3 3 3 4 5 5 5 5 7 8 7 8 9 9 9 8 7 6 7 7 9